STARLINK-3784 (52275 NORAD) Tracking and Keplerian Element Data

This shows tracking and keplerian element data for the satellite.

Feedback or suggestion? Click here.




ElementValue
Catalog52275
NameSTARLINK-3784
Epoch Orbit130
Epoch Day167.08334491
Epoch Year2022
RAAN106.816
Inclination53.2173
Eccentricity0.0001859
Argument of Perigee38.9114
Mean Anonmoly81.9711
Mean Motion15.26732477
Decay Rate-0.00726295
L11 52275U 22041Q 22167.08334491 -.00726295 00000+0 -29234-1 0 9993
L22 52275 53.2173 106.8160 0001859 38.9114 81.9711 15.26732477 1300

Live tracking and technical data element details for STARLINK-3784 (NORAD 52275). STARLINK-3784 can be tracked NOW for your location showing map with azimuth and elevation plus other details from your city location.

Track the satellite on the map from your city or location and see movement details for azimuth, elevation, latitude, longitude, range, height, and movement on the map or in text.







IsCatalogInMostPopularTable: catalog: 52275, numindb: 3
Update: records affected: 1



GetName: 52275 STARLINK-3784

Hit Count: updated at: Mon, 27 Jun 2022 05:12:05 GMT